EN

Hourly Weather Dhupgari

Today, 18 May, Tuesday

Time Temperature Precipitation Wind Pressure Humidity
00:00 +29°C° 0 mm 2 mps 746 mmHg 60%
01:00 +28°C° 0 mm 2 mps 746 mmHg 61%
02:00 +28°C° 0 mm 2 mps 746 mmHg 62%
03:00 +28°C° 0 mm 1 mps 746 mmHg 63%
04:00 +28°C° 0 mm 1 mps 746 mmHg 62%
05:00 +28°C° 0 mm 1 mps 746 mmHg 62%
06:00 +28°C° 0 mm 1 mps 747 mmHg 61%
07:00 +29°C° 0.1 mm 1 mps 747 mmHg 62%
08:00 +29°C° 0.1 mm 1 mps 747 mmHg 64%
09:00 +29°C° 0.1 mm 1 mps 748 mmHg 65%
10:00 +33°C° 0.2 mm 1 mps 746 mmHg 57%
11:00 +34°C° 0.2 mm 2 mps 746 mmHg 56%
12:00 +34°C° 0.2 mm 3 mps 747 mmHg 56%
13:00 +35°C° 0 mm 2 mps 746 mmHg 54%
14:00 +35°C° 0 mm 2 mps 746 mmHg 52%
15:00 +35°C° 0 mm 1 mps 745 mmHg 50%
16:00 +35°C° 0.1 mm 2 mps 744 mmHg 54%
17:00 +34°C° 0.1 mm 2 mps 744 mmHg 58%
18:00 +32°C° 0.1 mm 2 mps 743 mmHg 62%
19:00 +31°C° 0 mm 3 mps 744 mmHg 65%
20:00 +30°C° 0 mm 3 mps 745 mmHg 68%
21:00 +29°C° 0 mm 3 mps 745 mmHg 72%
22:00 +29°C° 0 mm 3 mps 746 mmHg 72%
23:00 +29°C° 0 mm 3 mps 746 mmHg 73%

Tomorrow, 19 May, Wednesday

Time Temperature Precipitation Wind Pressure Humidity
00:00 +28°C° 0 mm 3 mps 746 mmHg 74%
01:00 +28°C° 0 mm 3 mps 745 mmHg 76%
02:00 +27°C° 0 mm 3 mps 745 mmHg 79%
03:00 +27°C° 0 mm 3 mps 745 mmHg 81%
04:00 +26°C° 0 mm 2 mps 745 mmHg 82%
05:00 +26°C° 0 mm 2 mps 746 mmHg 83%
06:00 +26°C° 0 mm 2 mps 746 mmHg 83%
07:00 +28°C° 0 mm 2 mps 746 mmHg 77%
08:00 +30°C° 0 mm 3 mps 747 mmHg 71%
09:00 +31°C° 0 mm 3 mps 747 mmHg 65%
10:00 +34°C° 0.1 mm 3 mps 747 mmHg 61%
11:00 +35°C° 0.1 mm 2 mps 746 mmHg 57%
12:00 +36°C° 0.1 mm 2 mps 746 mmHg 53%
13:00 +36°C° 0.1 mm 2 mps 745 mmHg 53%
14:00 +35°C° 0.1 mm 1 mps 744 mmHg 53%
15:00 +35°C° 0.1 mm 1 mps 744 mmHg 54%
16:00 +34°C° 0 mm 1 mps 743 mmHg 56%
17:00 +35°C° 0 mm 2 mps 743 mmHg 59%
18:00 +34°C° 0 mm 2 mps 742 mmHg 61%
19:00 +32°C° 0.1 mm 2 mps 743 mmHg 65%
20:00 +31°C° 0.1 mm 2 mps 744 mmHg 68%
21:00 +30°C° 0.1 mm 3 mps 745 mmHg 72%
22:00 +29°C° 0.7 mm 3 mps 745 mmHg 78%
23:00 +28°C° 0.7 mm 3 mps 745 mmHg 85%

Day after tomorrow, 20 May, Thursday

Time Temperature Precipitation Wind Pressure Humidity
00:00 +27°C° 0.7 mm 3 mps 746 mmHg 91%
01:00 +26°C° 0.9 mm 3 mps 746 mmHg 92%
02:00 +26°C° 0.9 mm 3 mps 745 mmHg 93%
03:00 +26°C° 0.9 mm 2 mps 745 mmHg 94%
04:00 +26°C° 1 mm 2 mps 746 mmHg 94%
05:00 +26°C° 1 mm 2 mps 746 mmHg 94%
06:00 +26°C° 1 mm 2 mps 746 mmHg 93%
07:00 +26°C° 0.4 mm 3 mps 747 mmHg 91%
08:00 +27°C° 0.4 mm 3 mps 747 mmHg 88%
09:00 +28°C° 0.4 mm 3 mps 748 mmHg 85%
10:00 +29°C° 0 mm 2 mps 747 mmHg 79%
11:00 +31°C° 0 mm 2 mps 747 mmHg 73%
12:00 +32°C° 0 mm 1 mps 747 mmHg 67%
13:00 +33°C° 0 mm 1 mps 746 mmHg 63%
14:00 +34°C° 0 mm 1 mps 746 mmHg 60%
15:00 +35°C° 0 mm 1 mps 745 mmHg 56%
16:00 +34°C° 0 mm 1 mps 745 mmHg 59%
17:00 +34°C° 0 mm 1 mps 744 mmHg 62%
18:00 +33°C° 0 mm 1 mps 744 mmHg 64%
19:00 +32°C° 0.3 mm 1 mps 744 mmHg 69%
20:00 +30°C° 0.3 mm 2 mps 745 mmHg 74%
21:00 +29°C° 0.3 mm 2 mps 745 mmHg 79%
22:00 +28°C° 1.4 mm 2 mps 746 mmHg 84%
23:00 +27°C° 1.4 mm 2 mps 746 mmHg 89%

21 May, Friday

Time Temperature Precipitation Wind Pressure Humidity
00:00 +26°C° 1.4 mm 2 mps 746 mmHg 95%
01:00 +26°C° 1 mm 2 mps 746 mmHg 94%
02:00 +26°C° 1 mm 2 mps 745 mmHg 94%
03:00 +26°C° 1 mm 2 mps 745 mmHg 94%
04:00 +26°C° 1.1 mm 2 mps 745 mmHg 94%
05:00 +26°C° 1.1 mm 2 mps 746 mmHg 94%
06:00 +26°C° 1.1 mm 2 mps 746 mmHg 95%
07:00 +27°C° 0.3 mm 2 mps 746 mmHg 93%
08:00 +27°C° 0.3 mm 2 mps 747 mmHg 91%
09:00 +27°C° 0.3 mm 2 mps 747 mmHg 90%
10:00 +29°C° 0 mm 2 mps 747 mmHg 82%
11:00 +31°C° 0 mm 3 mps 746 mmHg 75%
12:00 +34°C° 0 mm 3 mps 746 mmHg 67%
13:00 +34°C° 0 mm 2 mps 745 mmHg 65%
14:00 +35°C° 0 mm 2 mps 744 mmHg 63%
15:00 +34°C° 0 mm 1 mps 744 mmHg 60%
16:00 +35°C° 0.1 mm 2 mps 743 mmHg 64%
17:00 +34°C° 0.1 mm 2 mps 743 mmHg 68%
18:00 +33°C° 0.1 mm 3 mps 743 mmHg 71%
19:00 +31°C° 0.3 mm 2 mps 743 mmHg 76%
20:00 +30°C° 0.3 mm 2 mps 743 mmHg 80%
21:00 +28°C° 0.3 mm 2 mps 744 mmHg 84%
22:00 +28°C° 0.9 mm 2 mps 744 mmHg 87%
23:00 +27°C° 0.9 mm 2 mps 745 mmHg 90%

22 May, Saturday

Time Temperature Precipitation Wind Pressure Humidity
00:00 +27°C° 0.9 mm 2 mps 745 mmHg 93%
01:00 +27°C° 0.8 mm 2 mps 745 mmHg 93%
02:00 +26°C° 0.8 mm 2 mps 745 mmHg 93%
03:00 +26°C° 0.8 mm 1 mps 745 mmHg 93%
04:00 +26°C° 0.2 mm 2 mps 745 mmHg 93%
05:00 +26°C° 0.2 mm 2 mps 745 mmHg 93%
06:00 +26°C° 0.2 mm 2 mps 746 mmHg 93%
07:00 +28°C° 0 mm 2 mps 746 mmHg 86%
08:00 +29°C° 0 mm 3 mps 746 mmHg 80%
09:00 +31°C° 0 mm 3 mps 746 mmHg 74%
10:00 +33°C° 0 mm 3 mps 746 mmHg 69%
11:00 +34°C° 0 mm 3 mps 746 mmHg 64%
12:00 +35°C° 0 mm 3 mps 745 mmHg 59%
13:00 +35°C° 0.1 mm 2 mps 745 mmHg 60%
14:00 +35°C° 0.1 mm 2 mps 744 mmHg 62%
15:00 +33°C° 0.1 mm 1 mps 744 mmHg 63%
16:00 +33°C° 0.1 mm 1 mps 743 mmHg 66%
17:00 +32°C° 0.1 mm 2 mps 743 mmHg 70%
18:00 +31°C° 0.1 mm 2 mps 743 mmHg 74%
19:00 +32°C° 0.1 mm 2 mps 743 mmHg 70%
20:00 +31°C° 0.1 mm 2 mps 743 mmHg 71%
21:00 +30°C° 0.1 mm 2 mps 744 mmHg 72%
22:00 +29°C° 0.5 mm 2 mps 744 mmHg 76%
23:00 +29°C° 0.5 mm 2 mps 744 mmHg 80%

23 May, Sunday

Time Temperature Precipitation Wind Pressure Humidity
00:00 +28°C° 0.5 mm 2 mps 744 mmHg 84%
01:00 +27°C° 0.3 mm 2 mps 744 mmHg 85%
02:00 +27°C° 0.3 mm 2 mps 744 mmHg 86%
03:00 +27°C° 0.3 mm 2 mps 744 mmHg 87%
04:00 +27°C° 0.3 mm 2 mps 744 mmHg 86%
05:00 +27°C° 0.3 mm 1 mps 744 mmHg 85%
06:00 +27°C° 0.3 mm 1 mps 744 mmHg 84%
07:00 +29°C° 0 mm 2 mps 745 mmHg 76%
08:00 +31°C° 0 mm 2 mps 745 mmHg 68%
09:00 +34°C° 0 mm 2 mps 745 mmHg 61%
10:00 +36°C° 0 mm 2 mps 745 mmHg 56%
11:00 +37°C° 0 mm 2 mps 745 mmHg 51%
12:00 +38°C° 0 mm 2 mps 744 mmHg 46%
13:00 +37°C° 0.1 mm 1 mps 744 mmHg 46%
14:00 +37°C° 0.1 mm 1 mps 743 mmHg 46%
15:00 +35°C° 0.1 mm 0 mps 742 mmHg 46%
16:00 +36°C° 0 mm 1 mps 742 mmHg 51%
17:00 +36°C° 0 mm 2 mps 742 mmHg 55%
18:00 +35°C° 0 mm 2 mps 742 mmHg 60%
19:00 +34°C° 0 mm 2 mps 742 mmHg 61%
20:00 +32°C° 0 mm 2 mps 743 mmHg 63%
21:00 +31°C° 0 mm 2 mps 743 mmHg 64%
22:00 +31°C° 0 mm 2 mps 743 mmHg 67%
23:00 +30°C° 0 mm 2 mps 743 mmHg 70%
Show more